{"data":{"norad_id":47747,"epoch":"2026-05-25T02:55:19.123104Z","epoch_age_seconds":78620,"freshness":"FRESH","line1":"1 47747U 21017AB  26145.12174911 -.00000103  00000+0  84534-5 0  9997","line2":"2 47747  53.1586 198.4071 0001130  85.9514 274.1617 15.31698203289720","mean_motion":15.31698203,"eccentricity":0.000113,"inclination_deg":53.1586,"raan_deg":198.4071,"arg_perigee_deg":85.9514,"mean_anomaly_deg":274.1617,"bstar":8.4534e-6,"rev_number":28972,"period_min":94.013298258077,"perigee_km":469.9714282886,"apogee_km":471.51927570015,"semimajor_km":6848.8823519944,"source":"CELESTRAK","updated_at":"2026-05-25T13:38:16.567025Z"}}